Hourly Data Report for December 20, 2004

TORONTO CITY
ONTARIO

43°40'00.000" N
79°24'00.000" W
112.50 m
6158355
71508
XTO

Download Data

Hourly Data (December 2004)
Hourly Data Report for December 20, 2004
TIME
LST
Temp Definition
°C
Dew Point Definition
°C
Rel Hum Definition
%
Precip. Amount Definition
mm

Wind Dir Definition
10's deg

Wind Spd Definition
km/h
Visibility Definition
km
Stn Press Definition
kPa
Hmdx Definition


Wind Chill Definition


Weather Definition


00:00 -21.3 -28.2 54   LegendMM LegendMM LegendMM 100.65     LegendNANA
01:00 -21.1 -29.5 47   LegendMM LegendMM LegendMM 100.62     LegendNANA
02:00 -21.7 -28.2 56   LegendMM LegendMM LegendMM 100.65     LegendNANA
03:00 -22.5 -28.7 57   LegendMM LegendMM LegendMM 100.72     LegendNANA
04:00 -22.5 -28.0 61   LegendMM LegendMM LegendMM 100.74     LegendNANA
05:00 -22.8 -27.9 63   LegendMM LegendMM LegendMM 100.78     LegendNANA
06:00 -22.9 -27.9 64   LegendMM LegendMM LegendMM 100.82     LegendNANA
07:00 -23.1 -28.2 63   LegendMM LegendMM LegendMM 100.80     LegendNANA
08:00 -22.6 -27.4 65   LegendMM LegendMM LegendMM 100.82     LegendNANA
09:00 -21.4 -26.9 61   LegendMM LegendMM LegendMM 100.81     LegendNANA
10:00 -20.0 -26.5 56   LegendMM LegendMM LegendMM 100.81     LegendNANA
11:00 -17.5 -25.0 52   LegendMM LegendMM LegendMM 100.73     LegendNANA
12:00 -15.1 -23.4 49   LegendMM LegendMM LegendMM 100.69     LegendNANA
13:00 -13.4 -22.9 45   LegendMM LegendMM LegendMM 100.63     LegendNANA
14:00 -13.6 -22.2 48   LegendMM LegendMM LegendMM 100.54     LegendNANA
15:00 -13.2 -18.1 67   LegendMM LegendMM LegendMM 100.50     LegendNANA
16:00 -12.6 -15.9 76   LegendMM LegendMM LegendMM 100.50     LegendNANA
17:00 -11.3 -13.9 81   LegendMM LegendMM LegendMM 100.48     LegendNANA
18:00 -11.1 -13.5 82   LegendMM LegendMM LegendMM 100.37     LegendNANA
19:00 -10.1 -14.2 72   LegendMM LegendMM LegendMM 100.31     LegendNANA
20:00 -9.4 -12.8 76   LegendMM LegendMM LegendMM 100.23     LegendNANA
21:00 -9.2 -12.4 78   LegendMM LegendMM LegendMM 100.17     LegendNANA
22:00 -8.5 -11.0 82   LegendMM LegendMM LegendMM 100.13     LegendNANA
23:00 -7.8 -9.9 85   LegendMM LegendMM LegendMM 100.12     LegendNANA

Notes on Data Quality.

Legend

  • E = Estimated
  • M = Missing
  • NA = Not Available*
  • [empty] = Indicates an unobserved value
Date modified: